sat.trackr.live / text

‹ back to catalog

CRYOSAT 2

NORAD 36508 · 2010-013A

PAYLOAD ACTIVE UNKNOWN

§ Identity

Operator
Country
ESA
Launch date
2010-04-08
Launch site
TYMSC
Launch vehicle
Mass (kg)
RCS (m²)
2.56

Purposes: science

External: N2YO · Heavens-Above · Gunter

§ Orbital elements

Epoch: 2026-05-25T04:48:01.383264Z

Period
99.18 min
Inclination
92.0332°
Eccentricity
0.0002449
Mean motion
14.51901002 rev/d
Perigee alt
717.7 km
Apogee alt
721.2 km
Semi-major
7,097.6 km
B*
4.9061e-5
RAAN
271.7172°
Arg perigee
85.0142°
Mean anomaly
275.1345°
Rev number
85,474

§ Raw data

CRYOSAT 21 36508U 10013A   26145.20001601  .00000201  00000+0  49061-4 0  99912 36508  92.0332 271.7172 0002449  85.0142 275.1345 14.51901002854747

JSON: /api/v1/satellites/36508 · /tle

For live sub-satellite position, see the globe view (requires WebGL).

§ Visibility from observer

Set your observer location to see the next 7 days of passes ≥ 10°. The values pass through the URL so the page stays shareable.

No JS? Fill the form by hand. The geolocation button needs JavaScript.

§ Radio — SatNOGS DB

ModeDescriptionDownlinkUplink
S-Band telemetry 2.201 GHz

1 transmitter · refreshed weekly from db.satnogs.org